Dewpoint
2 1 2 3 3 3 5 5 5 2 1 -1 -3 -4 -4 -3 -2 -1 2 2 3 3 3 3 3 3 2 2 1 1 1 1 1 1 1 1 1 0 0 0 0 1 1 1
6 4 2 3 2 2 2 3 2 2 2 -2 -3 -3 -2 -2 -2 -1 -0 2 3 3 3 3 3 2 2 2 1 1 1 1 1 0 0 0 0 0 0 0 1 2 1 1
5 3 4 5 2 1 1 1 2 4 1 -2 -1 -1 -1 -1 -1 -0 0 -0 2 3 2 3 3 2 2 2 1 1 1 1 0 0 0 0 0 0 -0 1 1 1 0 -0
4 1 5 -2 -3 -1 -0 -1 -1 0 -1 -2 -2 -2 -1 -1 -1 -1 -1 -1 1 2 2 3 3 2 2 2 2 1 1 0 0 0 1 1 0 -0 0 0 0 0 -0 -1
4 3 -0 -1 -2 -2 -1 -2 -3 -2 -2 -2 -2 -1 -1 -1 -1 -0 -1 -1 -0 1 1 2 2 2 2 2 2 1 0 0 -0 0 0 0 0 -0 -0 -0 -1 -0 -1 -2
4 4 2 -4 -2 -3 -3 0 -2 -2 -2 -1 -0 2 0 -2 -2 -2 -2 -2 -3 -0 2 2 2 2 2 2 1 1 0 0 -0 0 0 0 -0 -0 -1 -1 -1 -1 -3 -10
4 4 1 -3 -2 -2 -0 -1 0 2 2 2 1 -1 -1 -1 -1 -2 -2 -2 -3 -0 -0 -0 0 1 1 2 1 1 0 -0 -0 -0 -0 -0 -1 -1 -1 -1 -1 -2 -10 -21
3 4 3 -3 -1 -1 -3 0 1 2 2 1 0 -0 -1 -1 -0 -1 -2 -2 -3 -1 -1 -2 1 1 1 0 -0 -0 -0 -1 -1 -0 -1 -1 -1 -1 -2 -2 -2 -8 -20 -23
1 -1 -2 -2 -3 -3 -1 -0 1 2 2 -0 -1 -1 -0 0 0 1 -0 -1 -1 -1 0 1 1 -0 -1 -1 -1 -1 -1 -1 -1 -1 -1 -1 -2 -2 -2 -2 -2 -13 -20 -24
0 -3 -2 -2 -3 -2 -2 -1 -0 1 2 1 -0 -1 -0 1 1 0 0 0 1 1 1 0 -0 -1 -1 -1 -1 -1 -1 -1 -1 -1 -1 -2 -2 -3 -2 -2 -3 -17 -21 -24
-0 -2 -3 -3 -2 -3 -3 -3 -3 0 2 2 3 3 2 2 2 2 1 1 1 0 -0 0 0 0 -1 -1 -1 -1 -1 -1 -1 -2 -1 -2 -2 -2 -2 -2 -11 -18 -22 -24
0 -2 -2 -3 -2 -3 -3 -3 -3 1 1 1 1 2 1 2 2 2 2 2 3 4 3 1 2 2 0 -1 -1 -1 -1 -1 -1 -1 -1 -2 -2 -2 -2 -6 -16 -19 -21 -23
-4 -2 -1 -1 -1 -1 -1 -1 -2 1 1 1 2 2 2 2 2 2 2 2 2 2 2 2 1 0 2 0 -1 -1 -0 -0 -1 -1 -1 -2 -2 -2 -2 -9 -17 -19 -21 -22
-6 -2 0 0 0 1 1 -1 0 1 1 2 2 2 1 1 1 1 1 1 1 1 2 2 1 1 1 1 -0 -1 -1 -1 -0 -0 -0 -1 -1 -2 -2 -9 -16 -17 -19 -21
-8 -7 0 0 0 1 1 0 1 1 2 2 1 1 1 0 0 0 0 0 1 1 2 2 1 1 1 1 1 0 -0 -1 -1 -1 -1 -1 -1 -1 -2 -5 -12 -15 -16 -17
-1 -0 1 1 1 1 1 1 1 1 1 1 1 1 0 -0 -1 -1 -1 -1 -0 0 0 1 2 2 1 1 1 1 1 0 -0 -1 -1 -1 -1 -1 -2 -2 -6 -11 -15 -16
-4 -3 1 1 1 1 1 1 1 1 1 1 0 -0 -1 -1 -1 -1 -1 -1 -0 -0 -1 0 0 0 1 1 1 2 2 1 0 0 -1 -0 -0 -1 -1 -2 -2 -6 -12 -16
-7 -4 -0 0 0 1 1 1 1 0 0 -0 -0 -1 -1 -0 -0 -1 -1 -1 -0 -0 -0 -0 -0 0 -0 0 1 1 1 1 1 1 0 -0 -0 -0 -0 -0 -1 -1 -2 -4
0 1 0 1 1 1 0 0 0 -0 -0 -0 0 0 0 1 0 0 0 -0 -1 -1 -0 -0 0 0 0 0 0 1 1 1 1 0 0 0 -0 -1 -1 -0 -0 -1 -1 -1
0 0 -0 0 0 0 0 -0 -0 0 1 0 -1 -2 -4 -5 -5 -5 -3 -2 -2 -1 -1 -1 -1 -1 -0 -0 -0 0 0 0 -0 0 -0 -0 -0 -1 -1 -1 -1 -1 -1 -1
-1 -0 -0 -0 -0 -0 -0 -0 -0 -1 -2 -5 -9 -12 -14 -15 -15 -14 -10 -7 -5 -4 -3 -3 -2 -2 -1 -1 -1 -1 -1 -1 -1 -1 -1 -1 -1 -1 -1 -1 -1 -2 -2 -2
-1 -1 -1 -1 -1 -2 -4 -7 -14 -17 -18 -19 -20 -21 -21 -21 -21 -19 -16 -12 -12 -12 -10 -8 -7 -6 -5 -3 -2 -2 -2 -2 -2 -2 -2 -2 -2 -2 -2 -2 -3 -3 -3 -3
-2 -3 -3 -5 -6 -9 -14 -20 -23 -23 -22 -22 -21 -21 -20 -20 -19 -18 -17 -17 -17 -16 -15 -15 -13 -12 -11 -7 -5 -5 -3 -3 -3 -3 -3 -3 -3 -3 -4 -4 -4 -4 -4 -4
-2 -9 -11 -11 -11 -12 -15 -21 -24 -24 -23 -22 -22 -21 -19 -19 -19 -19 -19 -18 -17 -17 -17 -16 -15 -15 -15 -14 -12 -11 -9 -7 -6 -5 -4 -4 -4 -4 -4 -4 -4 -4 -4 -4
-2 -7 -9 -9 -8 -7 -7 -9 -14 -21 -23 -23 -22 -22 -21 -20 -20 -20 -19 -19 -18 -18 -17 -16 -16 -16 -16 -16 -15 -14 -14 -13 -12 -11 -10 -9 -8 -6 -5 -4 -4 -4 -4 -4
-1 -2 -8 -9 -8 -8 -7 -7 -7 -9 -17 -23 -24 -23 -23 -22 -21 -20 -20 -19 -19 -18 -17 -17 -17 -16 -16 -16 -15 -15 -15 -15 -15 -14 -14 -14 -13 -12 -10 -9 -8 -7 -6 -5
-1 -1 -4 -6 -8 -7 -6 -6 -6 -6 -7 -16 -23 -24 -23 -22 -21 -20 -19 -19 -19 -18 -18 -17 -17 -17 -16 -16 -15 -15 -15 -14 -14 -14 -14 -14 -14 -14 -14 -13 -12 -11 -10 -10
Wind_Speed
6 3 5 5 13 17 17 17 15 13 19 21 23 22 27 19 9 8 10 14 18 21 23 24 23 22 21 19 18 16 15 14 14 14 15 15 16 16 16 16 15 15 12 11
2 6 7 8 11 12 19 23 23 25 26 20 27 26 27 24 23 18 15 17 21 23 25 26 25 23 21 20 19 17 16 15 15 15 15 16 16 15 15 14 13 12 11 10
3 5 3 6 15 18 14 14 18 20 23 15 16 16 20 20 20 19 21 24 24 27 30 27 25 23 22 20 20 18 17 16 16 16 16 16 16 15 13 11 10 9 9 8
2 5 6 1 3 8 13 19 17 19 22 22 21 24 22 22 24 22 17 16 22 25 29 29 25 23 21 21 21 20 19 18 17 18 16 16 16 15 12 10 10 9 8 9
4 7 6 12 5 6 7 9 14 21 19 22 20 16 26 22 21 22 19 14 14 20 28 28 26 24 24 24 24 23 22 20 18 17 17 17 16 14 12 12 12 11 10 10
3 4 6 1 4 7 6 5 4 7 8 9 4 6 7 8 10 19 22 22 16 18 22 23 24 25 24 25 24 24 21 19 18 17 17 17 15 14 14 14 13 12 12 12
6 5 5 6 7 10 5 1 4 7 7 7 6 10 10 13 10 7 15 17 15 19 21 22 21 21 22 21 22 19 18 18 18 18 18 17 14 15 16 16 15 16 15 13
6 4 10 9 8 6 2 3 2 3 4 6 8 6 7 8 5 4 8 12 15 19 18 17 17 17 17 17 16 18 18 18 18 18 18 16 15 16 18 18 19 18 15 13
6 4 2 14 6 12 5 2 2 3 4 5 3 2 3 4 0 2 5 8 13 16 16 16 16 14 13 13 15 17 17 17 17 17 17 15 17 18 20 21 21 19 17 15
2 4 9 7 12 11 9 11 6 5 4 3 3 4 5 2 2 3 5 7 10 12 13 13 12 11 12 12 14 15 16 17 18 18 15 16 17 19 21 23 22 21 18 16
7 11 12 13 14 15 15 16 16 9 5 4 3 1 0 1 2 3 5 5 6 8 8 9 9 10 12 12 13 15 16 17 17 16 16 17 19 20 21 22 20 18 16 15
3 8 9 8 11 7 12 14 10 10 6 4 3 2 1 0 1 2 4 5 6 7 8 10 12 13 14 13 13 14 15 16 16 15 18 18 19 20 22 21 20 20 19 18
9 8 15 20 18 11 8 7 10 11 8 7 6 3 2 1 0 2 4 6 9 9 9 12 13 15 14 15 14 15 14 12 14 16 19 20 21 23 23 22 23 22 21 19
11 12 9 10 6 7 5 4 9 11 10 8 6 4 2 2 2 3 4 5 7 9 10 12 13 14 14 15 15 15 15 14 13 14 16 19 22 23 23 24 25 23 21 19
20 12 14 16 14 7 4 6 9 9 8 7 5 4 2 1 2 3 5 7 7 8 9 11 12 11 13 14 16 16 16 16 14 16 18 20 21 24 25 25 26 24 23 23
15 9 15 14 10 7 6 8 8 8 7 5 4 4 3 3 3 5 7 10 10 10 11 11 12 12 14 14 14 16 18 17 17 17 17 21 24 26 28 28 28 28 27 25
14 14 9 12 9 7 7 7 8 7 6 5 4 4 5 5 6 6 8 10 12 12 13 14 13 13 16 16 16 17 17 18 19 19 19 20 23 26 28 29 30 30 29 26
16 14 13 11 7 9 8 8 7 6 5 5 6 6 8 10 11 11 10 10 13 13 13 14 15 15 16 16 17 18 18 19 20 22 20 21 23 24 27 29 31 32 30 28
2 3 2 4 6 8 8 7 6 5 5 5 6 8 8 8 8 7 8 9 9 9 9 10 10 12 14 16 17 19 20 20 21 21 22 21 22 23 24 26 29 31 32 33
2 3 4 6 8 8 8 6 4 3 3 4 4 4 4 4 5 6 7 8 8 8 9 9 10 11 13 13 15 18 19 20 21 21 21 22 22 23 23 24 25 26 28 30
3 3 3 4 5 5 5 4 3 2 1 2 4 4 4 5 6 6 6 6 6 7 9 9 11 11 10 12 13 15 16 18 20 21 21 21 22 22 24 24 25 25 26 27
4 5 7 8 8 7 5 2 1 2 3 3 3 3 4 5 6 5 5 6 7 8 9 9 9 10 9 10 10 13 15 17 18 19 20 21 21 22 23 23 24 24 24 24
9 7 6 5 3 1 0 1 2 2 2 2 3 3 4 4 4 4 5 7 7 8 8 9 9 10 9 9 9 10 11 12 14 15 17 18 18 19 20 20 21 21 21 21
8 4 3 2 1 2 3 3 3 3 3 3 3 4 4 5 5 5 6 7 8 8 8 9 9 9 9 9 10 10 10 11 12 13 14 15 16 17 17 18 19 19 20 20
1 4 5 5 4 4 5 5 5 5 5 5 5 5 5 5 5 6 7 7 8 8 9 9 10 10 10 10 10 11 11 11 12 13 14 15 17 18 19 19 20 21 21 20
8 10 11 10 9 9 9 9 7 7 7 7 7 6 7 6 7 7 8 9 9 10 10 11 12 12 12 13 13 13 13 13 14 14 15 16 17 18 18 19 19 19 19 20
11 11 14 14 13 13 13 12 11 9 9 9 9 8 8 8 8 9 8 9 9 10 11 12 13 14 14 15 15 15 16 17 17 18 19 19 19 19 20 20 20 20 20 21
Wind_Direction
236 129 168 205 208 213 217 232 240 257 244 241 256 274 291 294 276 260 235 221 209 205 202 204 207 209 214 221 226 230 237 246 253 258 259 260 264 267 269 268 264 259 260 262
243 231 240 247 235 236 230 237 246 251 261 255 260 264 268 269 271 259 253 234 222 213 211 211 214 217 220 225 228 233 241 248 253 257 261 263 267 268 269 271 267 253 244 246
208 165 160 256 232 223 225 230 233 241 246 262 261 255 260 269 271 263 255 246 229 219 218 217 220 224 227 230 234 236 242 249 253 258 259 262 266 266 268 266 257 237 221 216
153 156 237 325 155 229 247 252 241 256 262 264 270 280 279 265 264 265 262 252 233 226 221 222 224 228 232 235 238 241 246 250 251 252 255 260 262 262 258 247 236 227 212 205
191 213 311 280 218 189 201 277 238 241 258 273 285 291 277 265 251 252 251 258 249 222 218 222 228 230 232 235 237 239 242 245 249 251 251 257 260 254 245 235 229 218 201 191
164 216 224 166 169 175 162 264 191 217 255 275 295 271 292 332 267 247 241 254 256 219 213 222 229 230 231 234 236 238 242 246 249 251 253 258 255 245 234 224 218 202 197 199
208 237 262 242 156 162 240 66 167 210 254 261 239 262 295 302 306 263 230 238 224 207 211 216 223 224 228 234 240 244 243 244 245 247 251 255 247 235 226 217 209 202 203 207
211 239 259 141 126 219 72 130 241 249 273 274 273 274 290 306 297 236 220 217 205 200 204 208 210 215 226 235 237 236 237 241 245 247 252 248 238 228 219 211 205 204 206 211
227 225 38 190 235 212 196 233 249 262 308 303 266 271 304 329 324 134 163 179 186 190 196 201 204 212 223 230 232 233 237 241 244 249 252 242 232 224 216 208 205 207 210 216
284 244 250 247 241 236 238 247 251 267 294 269 279 281 284 286 160 164 173 181 191 197 197 202 208 215 219 231 237 236 239 242 245 249 246 233 226 224 218 208 208 210 215 220
272 286 285 266 252 245 249 255 260 245 247 238 242 228 302 64 109 151 155 167 183 199 213 219 222 233 240 238 240 240 240 243 246 248 238 229 227 222 211 211 214 219 222 227
234 7 315 315 333 295 254 260 245 223 220 198 182 174 151 211 242 230 215 196 211 231 232 237 242 244 245 242 243 244 247 251 253 248 233 226 225 218 212 214 216 220 223 230
269 319 301 298 303 291 276 262 222 208 201 184 174 172 167 163 220 254 247 244 244 246 248 244 244 243 243 243 243 244 247 255 259 243 231 227 225 220 220 221 224 228 232 235
315 326 297 335 310 296 263 235 199 198 194 193 189 183 191 223 278 291 287 279 265 256 253 255 256 257 254 248 244 246 249 253 250 248 240 233 228 226 227 228 231 237 239 241
290 271 270 292 289 271 222 184 183 187 188 186 189 194 197 236 286 300 300 298 294 283 269 263 262 259 253 250 249 249 249 252 254 247 239 237 235 232 233 234 238 242 243 241
313 293 279 284 271 239 203 183 189 191 196 205 210 214 230 252 287 303 305 300 290 283 277 270 262 257 247 246 251 254 252 251 253 255 251 242 240 237 237 238 241 244 246 247
304 320 325 279 258 234 210 197 193 198 199 208 229 248 265 275 275 282 302 312 300 288 275 268 264 257 251 248 251 253 256 255 255 256 251 251 251 249 246 246 249 251 252 253
271 275 278 266 253 214 197 189 187 196 210 231 252 266 275 278 278 277 284 291 297 293 280 273 270 266 261 256 253 253 255 257 255 259 261 257 257 256 252 252 254 256 257 254
238 270 222 191 171 185 188 185 192 217 235 258 277 286 289 290 292 300 305 306 295 292 286 284 280 275 269 263 256 253 252 253 254 256 261 261 259 260 261 260 261 262 263 262
188 162 136 143 152 169 186 190 197 224 261 284 277 274 282 293 303 301 295 289 289 295 303 297 283 276 270 263 260 257 256 256 258 259 259 262 264 266 268 269 269 270 270 268
195 172 163 159 162 165 174 176 180 188 228 277 273 280 293 306 311 309 303 300 304 303 302 303 307 297 285 275 264 260 260 259 260 262 264 266 268 268 270 271 273 273 273 272
114 114 115 116 106 86 71 54 314 266 264 275 290 309 317 320 321 321 317 312 318 319 317 316 313 305 303 295 287 276 268 265 265 265 266 268 270 272 273 274 275 275 275 274
104 86 89 83 81 116 241 334 335 324 318 317 325 330 328 332 336 343 337 334 332 337 335 331 319 316 316 309 301 292 285 280 276 273 273 273 274 274 276 277 278 277 276 276
99 59 18 24 36 19 0 352 346 337 328 325 325 328 333 341 342 338 341 340 339 334 331 332 331 328 326 321 315 308 301 294 288 283 280 278 277 277 277 278 278 279 278 277
76 321 307 301 301 308 321 328 328 326 320 318 316 318 320 321 329 332 331 330 332 335 332 329 328 329 327 323 320 316 313 309 305 301 296 290 286 282 280 279 280 282 281 278
295 295 287 280 282 286 290 294 300 306 308 305 302 303 309 311 316 321 325 329 331 331 331 330 329 329 329 326 322 318 314 310 306 303 300 298 295 292 289 286 283 280 277 277
274 267 273 273 276 281 282 286 290 292 293 295 292 291 296 303 309 314 318 323 327 328 328 327 327 326 325 322 319 316 313 311 309 306 304 301 299 297 293 290 286 283 280 279
Height
1482 1482 1484 1484 1484 1486 1490 1489 1488 1479 1476 1477 1471 1466 1469 1473 1474 1474 1473 1474 1474 1477 1479 1481 1485 1488 1490 1493 1495 1496 1498 1498 1498 1499 1501 1501 1501 1500 1499 1499 1498 1498 1497 1497
1487 1485 1485 1486 1483 1482 1482 1481 1478 1478 1470 1471 1470 1470 1469 1469 1470 1470 1470 1471 1473 1475 1477 1478 1482 1485 1487 1490 1492 1493 1494 1494 1495 1494 1496 1496 1496 1496 1495 1495 1494 1494 1494 1495
1477 1486 1490 1486 1475 1475 1473 1471 1473 1472 1462 1466 1465 1465 1464 1463 1463 1462 1463 1465 1467 1469 1471 1475 1477 1481 1483 1486 1488 1488 1490 1490 1490 1490 1490 1492 1494 1493 1490 1492 1492 1491 1491 1493
1474 1483 1478 1459 1464 1465 1465 1462 1464 1464 1458 1458 1459 1459 1458 1457 1456 1455 1457 1457 1459 1461 1465 1469 1473 1477 1479 1481 1483 1483 1485 1486 1487 1488 1486 1488 1490 1490 1487 1488 1490 1490 1489 1491
1471 1470 1462 1457 1460 1464 1463 1455 1455 1455 1453 1454 1455 1455 1447 1447 1448 1450 1452 1452 1453 1455 1460 1466 1470 1473 1476 1477 1478 1480 1482 1482 1483 1482 1483 1484 1485 1485 1485 1487 1488 1489 1488 1490
1476 1467 1462 1451 1457 1459 1461 1453 1452 1453 1453 1452 1454 1447 1441 1443 1443 1443 1446 1447 1449 1452 1457 1463 1466 1468 1471 1472 1474 1475 1477 1478 1478 1478 1479 1480 1481 1482 1484 1485 1486 1486 1487 1489
1469 1464 1455 1450 1456 1460 1457 1449 1450 1451 1451 1451 1450 1447 1444 1442 1440 1438 1440 1443 1446 1449 1454 1458 1461 1464 1466 1468 1469 1471 1472 1473 1474 1475 1477 1477 1478 1479 1481 1482 1483 1484 1486 1488
1463 1465 1458 1449 1457 1455 1447 1449 1449 1449 1448 1447 1445 1444 1442 1440 1438 1437 1438 1440 1443 1447 1451 1454 1457 1460 1462 1464 1466 1467 1468 1469 1471 1472 1473 1473 1474 1476 1477 1479 1481 1483 1485 1486
1452 1446 1445 1446 1444 1446 1446 1447 1447 1447 1445 1444 1443 1442 1441 1440 1439 1438 1439 1440 1443 1446 1449 1452 1455 1457 1459 1461 1462 1463 1465 1466 1467 1468 1468 1470 1471 1472 1474 1476 1478 1480 1482 1484
1453 1442 1445 1445 1444 1444 1445 1446 1446 1445 1444 1443 1442 1442 1441 1440 1440 1439 1440 1442 1444 1447 1449 1451 1453 1455 1456 1457 1459 1460 1461 1462 1463 1464 1465 1466 1467 1469 1471 1473 1475 1478 1480 1482
1451 1446 1445 1442 1441 1441 1442 1443 1443 1443 1443 1443 1443 1443 1442 1442 1441 1441 1442 1443 1445 1447 1449 1450 1451 1453 1454 1455 1456 1457 1458 1459 1459 1460 1461 1463 1464 1466 1468 1471 1474 1476 1477 1479
1445 1450 1449 1443 1441 1440 1439 1439 1440 1442 1442 1442 1442 1443 1443 1443 1443 1443 1444 1444 1445 1447 1448 1448 1449 1450 1452 1452 1453 1454 1455 1455 1455 1456 1457 1459 1461 1463 1465 1468 1470 1472 1474 1475
1446 1446 1445 1443 1440 1440 1438 1437 1438 1440 1441 1441 1442 1443 1444 1444 1444 1444 1444 1444 1444 1445 1446 1446 1447 1448 1448 1449 1450 1450 1451 1451 1452 1452 1454 1456 1457 1459 1462 1465 1466 1468 1470 1471
1445 1446 1442 1442 1439 1438 1438 1437 1438 1439 1440 1441 1442 1442 1443 1443 1444 1443 1443 1443 1443 1443 1443 1444 1444 1444 1445 1445 1446 1447 1448 1448 1448 1448 1450 1452 1454 1456 1459 1460 1462 1464 1465 1466
1444 1442 1442 1439 1438 1437 1437 1436 1438 1439 1440 1441 1441 1442 1442 1442 1442 1442 1442 1442 1441 1441 1440 1440 1440 1441 1441 1442 1442 1443 1444 1444 1445 1445 1446 1448 1450 1452 1454 1455 1456 1458 1459 1460
1441 1439 1438 1437 1436 1436 1436 1436 1437 1438 1440 1440 1441 1441 1441 1441 1441 1441 1440 1440 1439 1439 1438 1437 1437 1438 1437 1438 1438 1439 1439 1440 1441 1441 1442 1443 1444 1446 1448 1449 1450 1451 1452 1454
1439 1437 1434 1434 1434 1434 1435 1436 1437 1438 1439 1439 1439 1439 1439 1439 1438 1437 1437 1436 1436 1435 1434 1433 1433 1433 1433 1433 1434 1434 1434 1435 1436 1436 1437 1438 1439 1440 1441 1443 1443 1444 1445 1448
1436 1435 1433 1432 1431 1432 1434 1435 1436 1437 1437 1437 1437 1437 1437 1436 1435 1433 1433 1432 1432 1431 1430 1429 1429 1429 1429 1429 1429 1429 1429 1430 1431 1430 1431 1432 1432 1433 1434 1435 1436 1436 1438 1439
1433 1432 1430 1430 1430 1431 1433 1434 1435 1435 1436 1436 1435 1435 1434 1433 1432 1431 1430 1429 1428 1428 1426 1425 1424 1424 1424 1424 1424 1424 1424 1424 1425 1425 1425 1426 1426 1426 1427 1427 1427 1428 1428 1429
1431 1431 1431 1430 1430 1432 1433 1433 1434 1434 1434 1434 1433 1433 1432 1431 1430 1429 1428 1427 1426 1425 1424 1422 1421 1420 1419 1418 1418 1418 1418 1419 1419 1419 1419 1419 1419 1419 1419 1419 1420 1419 1419 1419
1432 1431 1431 1431 1432 1432 1432 1432 1432 1432 1433 1433 1433 1432 1431 1429 1429 1427 1426 1424 1424 1422 1421 1419 1418 1417 1415 1414 1413 1413 1413 1413 1413 1413 1413 1413 1413 1412 1412 1412 1412 1411 1410 1410
1431 1431 1431 1432 1432 1433 1434 1433 1433 1433 1432 1432 1431 1430 1429 1427 1426 1425 1424 1424 1422 1420 1418 1417 1416 1414 1412 1411 1410 1409 1408 1408 1408 1407 1407 1406 1406 1405 1405 1404 1404 1403 1402 1402
1432 1433 1434 1434 1434 1434 1434 1433 1432 1431 1431 1430 1429 1429 1428 1426 1425 1424 1423 1421 1420 1417 1416 1414 1413 1411 1409 1408 1406 1406 1405 1403 1402 1401 1401 1400 1399 1399 1398 1398 1397 1396 1395 1394
1434 1436 1436 1435 1435 1434 1434 1433 1431 1431 1430 1429 1428 1428 1426 1425 1424 1423 1421 1419 1418 1417 1415 1414 1412 1410 1408 1406 1404 1403 1402 1400 1398 1397 1396 1395 1394 1393 1392 1391 1390 1389 1388 1387
1435 1435 1435 1435 1435 1434 1433 1432 1430 1429 1428 1427 1427 1426 1425 1424 1423 1421 1420 1418 1416 1415 1413 1412 1410 1408 1406 1404 1402 1401 1399 1397 1395 1393 1392 1390 1389 1387 1386 1385 1384 1383 1382 1381
1432 1432 1433 1433 1433 1432 1431 1430 1429 1427 1426 1425 1425 1424 1423 1422 1421 1419 1418 1416 1415 1413 1411 1410 1408 1406 1404 1402 1400 1398 1396 1394 1392 1390 1388 1386 1384 1382 1381 1379 1378 1377 1375 1374
1429 1429 1429 1428 1428 1427 1427 1426 1425 1424 1423 1423 1422 1421 1420 1419 1418 1417 1415 1414 1412 1411 1409 1407 1405 1403 1401 1399 1396 1394 1392 1389 1387 1385 1383 1381 1379 1376 1375 1373 1371 1370 1368 1367